Flag for U.S.A. Weather past 2 weeks in Riverside, California, U.S.A.

Now
72 °F

Clear.


Feels Like: 74 °F
Forecast: 72 / 95 °F
Wind: No wind

Location: Riverside Municipal Airport

Current Time: Jul 30, 2015 at 3:58:24 AM

Latest Report: Jul 30, 2015 at 2:53 AM


Visibility: 10 mi

Pressure: 29.93 "Hg

Humidity: 73%

Dew point: 63 °F

Location of RiversideLocation

Historic Weather in Riverside — Graph

°F

Riverside temperature yesterday

Maximum temperature yesterday: 95 °F (at 1:53 PM)
Minimum temperature yesterday: 67 °F (at 4:53 AM)
Average temperature yesterday: 78 °F

Past Weeks' High & Low Weather Summary

 TemperatureHumidityPressure
High95 °F (Jul 17, 2:53 PM)93% (Jul 18, 4:53 PM)30.05 "Hg (Jul 18, 4:53 PM)
Low62 °F (Jul 15, 3:53 AM)19% (Jul 25, 3:53 PM)29.73 "Hg (Jul 17, 4:53 PM)
Average76 °F64%29.89 "Hg
* Reported Jul 15 2:53 AM — Jul 30 2:53 AM, Riverside, Weather by CustomWeather, © 2015

Note: Actual official high and low records may vary slightly from our data, if they occured in-between our weather recording intervals... More about our weather records

Advertising

Riverside weather history for previous 24 hours

 ConditionsComfort  
Time TempWeatherWind HumidityBarometerVisibility
2:53 AM
Thu, Jul 30
72 °FClear.No wind73%29.93 "Hg10 mi
1:53 AM72 °FClear.5 mph73%29.93 "Hg10 mi
12:53 AM72 °FClear.3 mph73%29.94 "Hg10 mi
11:53 PM
Wed, Jul 29
73 °FClear.5 mph71%29.95 "Hg10 mi
10:53 PM73 °FClear.6 mph71%29.94 "Hg10 mi
9:53 PM75 °FClear.7 mph66%29.93 "Hg10 mi
8:53 PM77 °FClear.8 mph62%29.91 "Hg10 mi
7:53 PM80 °FPartly sunny.9 mph56%29.87 "Hg10 mi
6:53 PM86 °FPartly sunny.10 mph46%29.85 "Hg10 mi
5:53 PM88 °FPartly sunny.12 mph45%29.84 "Hg10 mi
4:53 PM90 °FScattered clouds.13 mph42%29.83 "Hg10 mi
3:53 PM93 °FScattered clouds.15 mph40%29.83 "Hg10 mi
2:53 PM95 °FScattered clouds.13 mph37%29.84 "Hg10 mi
1:53 PM95 °FScattered clouds.10 mph37%29.85 "Hg10 mi
12:53 PM91 °FScattered clouds.8 mph41%29.87 "Hg7 mi
11:53 AM86 °FScattered clouds.6 mph46%29.89 "Hg6 mi
10:53 AM81 °FScattered clouds.No wind53%29.90 "Hg7 mi
9:53 AM76 °FScattered clouds.No wind64%29.91 "Hg7 mi
8:53 AM72 °FSunny.3 mph73%29.91 "Hg6 mi
7:53 AM69 °FSunny.3 mph81%29.90 "Hg7 mi
6:53 AM67 °FClear.3 mph85%29.89 "Hg7 mi
5:53 AM67 °FClear.No wind85%29.87 "Hg9 mi
4:53 AM67 °FClear.3 mph85%29.86 "Hg9 mi
3:53 AM68 °FClear.3 mph82%29.86 "Hg10 mi
Weather by CustomWeather, © 2015

See weather overviewHow to use our weather pages